| time (UTC) | temp C | wind direction | speed KPH | gust KPH | rain 1hr cm | rain 24hr cm | rain mn cm | humidity % | barometer mb |
| 20260504180204 | 21 | 334 | 0.0 | 0.0 | 0.00 | 0.00 | 0.00 | 43 | 1014.9 |
| 20260504175105 | 21 | 334 | 0.0 | 1.6 | 0.00 | 0.00 | 0.00 | 43 | 1015.0 |
| 20260504174005 | 22 | 334 | 1.6 | 4.8 | 0.00 | 0.00 | 0.00 | 42 | 1015.0 |
| 20260504172903 | 22 | 334 | 0.0 | 0.0 | 0.00 | 0.00 | 0.00 | 42 | 1014.9 |
| 20260504171803 | 22 | 335 | 0.0 | 0.0 | 0.00 | 0.00 | 0.00 | 42 | 1015.0 |
| 20260504170704 | 22 | 335 | 1.6 | 1.6 | 0.00 | 0.00 | 0.00 | 41 | 1015.1 |
| 20260504160104 | 23 | 308 | 3.2 | 4.8 | 0.00 | 0.00 | 0.00 | 38 | 1015.3 |
| 20260504150605 | 23 | 319 | 3.2 | 11.3 | 0.00 | 0.00 | 0.00 | 38 | 1015.6 |
| 20260504141105 | 22 | 295 | 3.2 | 4.8 | 0.00 | 0.00 | 0.00 | 36 | 1016.1 |
| 20260504130505 | 21 | 268 | 4.8 | 11.3 | 0.00 | 0.00 | 0.00 | 42 | 1016.7 |
| 20260504110404 | 22 | 290 | 8.0 | 14.5 | 0.00 | 0.00 | 0.00 | 37 | 1017.2 |
| 20260504081905 | 21 | 301 | 3.2 | 4.8 | 0.00 | 0.00 | 0.00 | 40 | 1017.9 |
| 20260504080804 | 20 | 300 | 4.8 | 4.8 | 0.00 | 0.00 | 0.00 | 41 | 1017.8 |
| 20260504070203 | 18 | 302 | 3.2 | 8.0 | 0.00 | 0.00 | 0.00 | 47 | 1017.3 |
| 20260503194005 | 21 | 269 | 1.6 | 4.8 | 0.00 | 0.00 | 0.00 | 39 | 1016.5 |
| 20260503192904 | 21 | 276 | 3.2 | 4.8 | 0.00 | 0.00 | 0.00 | 39 | 1016.4 |
| 20260503191803 | 21 | 269 | 3.2 | 4.8 | 0.00 | 0.00 | 0.00 | 39 | 1016.3 |
| 20260503190704 | 21 | 270 | 3.2 | 4.8 | 0.00 | 0.00 | 0.00 | 38 | 1016.2 |
| 20260503185605 | 21 | 287 | 3.2 | 14.5 | 0.00 | 0.00 | 0.00 | 39 | 1016.2 |
| 20260503184504 | 22 | 315 | 0.0 | 0.0 | 0.00 | 0.00 | 0.00 | 40 | 1015.8 |
| 20260503183405 | 22 | 315 | 0.0 | 0.0 | 0.00 | 0.00 | 0.00 | 39 | 1015.8 |
| 20260503182305 | 22 | 315 | 0.0 | 0.0 | 0.00 | 0.00 | 0.00 | 37 | 1015.9 |
| 20260503181205 | 23 | 315 | 0.0 | 0.0 | 0.00 | 0.00 | 0.00 | 38 | 1015.9 |